Regional Weather Roundup
Issued by NWS

Home | Current Version | Previous Version | Graphics & Text | Print | Product List | Glossary On
Versions: 1 2 3 4 5 6 7 8 9 10 11 12 13 14 15 16 17 18 19 20 21 22 23 24 25 26 27 28
000
ASUS45 KSLC 171610
RWRUT

UTAH REGIONAL WEATHER ROUNDUP
NATIONAL WEATHER SERVICE SALT LAKE CITY UT
900 AM MST TUE JAN 17 2017

UTZ001>011-023>025-171700-

NORTHERN UTAH

CITY           SKY/WX    TMP DP  RH WIND       PRES   REMARKS
BRIGHAM CITY     N/A      8   3  81 N7        30.33R WCI  -3
HILL AFB       SUNNY     11   2  69 E16       30.27R WCI  -6
LOGAN          NOT AVBL
OGDEN          MOSUNNY   12   5  73 S6        30.29R WCI   3
SALT LAKE CITY MOSUNNY   22  19  89 N3        30.30R
TOOELE VALLEY  MOSUNNY   21  19  93 S3        30.31R
WENDOVER       CLOUDY    21  18  86 NE5       30.30R WCI  15
HEBER CITY     MOSUNNY   -4  -8  84 CALM      30.25S
WEST JORDAN    MOSUNNY   20  20 100 CALM      30.29R

$$

UTZ011>015-024>027-171700-

CENTRAL/NORTHEAST UTAH

CITY           SKY/WX    TMP DP  RH WIND       PRES   REMARKS
PROVO AIRPORT  MOSUNNY   19  13  77 SE7       30.30R WCI  10
MOAB/CANYONLAN SUNNY     32  21  64 CALM      30.20R
DELTA          PTSUNNY   18  18 100 CALM      30.27R
PRICE          MOSUNNY   17   4  56 CALM      30.18R
ROOSEVELT      LGT SNOW  19  16  86 SW3       30.32R
VERNAL         CLOUDY    17  15  92 CALM      30.30R FOG

$$

UTZ013>016-019>022-027-171700-

SOUTHERN UTAH

CITY           SKY/WX    TMP DP  RH WIND       PRES   REMARKS
BRYCE CANYON   LGT SNOW   7   5  91 W6        30.16R WCI  -3
CEDAR CITY     SUNNY     20  16  84 E3        30.18R
MILFORD        SUNNY     19  14  81 CALM      30.23R
ST GEORGE      MOSUNNY   34  23  64 E3        30.23R
HANKSVILLE     SUNNY     28  25  86 MISG      30.24R
BLANDING       CLOUDY    34  29  79 CALM      30.23R

$$

REGIONAL REPORTS     COLORADO/ARIZONA

CITY           SKY/WX    TMP DP  RH WIND       PRES   REMARKS
CRAIG, CO      CLOUDY    14  10  84 SW5       30.24R FOG     WCI   6
GRAND JUNCTION SUNNY     28  22  78 CALM      30.21R
RIFLE, CO      CLOUDY    23  17  78 E3        30.23R
MONTROSE, CO   CLOUDY    31  28  89 E3        30.22R
CORTEZ, CO     CLOUDY    35  33  92 N3        30.16R
COLORADO CITY    N/A     28  27  93 CALM      30.18R
PAGE, AZ       NOT AVBL
GRAND CANYON   SUNNY     24  22  91 CALM      30.13R
KINGMAN, AZ    SUNNY     36  20  52 E6        30.13R WCI  31
FLAGSTAFF, AZ  CLOUDY    30  22  72 E7        30.11R WCI  23

$$

REGIONAL REPORTS    NEVADA/IDAHO/WYOMING

CITY           SKY/WX    TMP DP  RH WIND       PRES   REMARKS
LAS VEGAS, NV  SUNNY     42  23  46 CALM      30.17R
ELY, NY        PTCLDY    -1  -4  87 S12       30.21R WCI -18
ELKO, NV       FLURRIES  14  11  87 NE5       30.28R WCI   6
POCATELLO, ID  CLOUDY    -1  -6  79 E3        30.32R
FORT BRIDGER,    N/A      4   1  87 W7        30.17R WCI  -9
EVANSTON, WY   CLOUDY     8   2  76 S5        30.16R WCI   0
ROCK SPRINGS,  CLOUDY    -7 -13  75 E5        30.17R HAZE    WCI -18

$$




USA.gov is the U.S. government's official web portal to all federal, state and local government web resources and services.